When you browse on this site, cookies collect data to enhance your experience and personalize the content and advertising you see.
Visit our Privacy Policy to learn more. By continuing to use the site, you agree to this use of cookies and data.
  • In Austria
  • List of Countries
  • For 7 days
  • Water Temperature
  • Weather Map
  • News
  • Weather Widgets
  • user-avatar
    Login

    Hourly Weather La Vega

    Today, 23 September, Monday

    Time Temperature Precipitation Wind Pressure Humidity
    00:00 +11°C° 0.1 mm 1 mps 570 mmHg 87%
    01:00 +11°C° 0 mm 1 mps 570 mmHg 86%
    02:00 +11°C° 0 mm 1 mps 570 mmHg 86%
    03:00 +11°C° 0 mm 1 mps 569 mmHg 86%
    04:00 +11°C° 0 mm 1 mps 569 mmHg 87%
    05:00 +11°C° 0 mm 1 mps 570 mmHg 85%
    06:00 +12°C° 0 mm 1 mps 571 mmHg 83%
    07:00 +13°C° 0 mm 1 mps 571 mmHg 81%
    08:00 +15°C° 0 mm 1 mps 572 mmHg 73%
    09:00 +18°C° 0 mm 1 mps 574 mmHg 65%
    10:00 +19°C° 0 mm 2 mps 575 mmHg 58%
    11:00 +20°C° 0.1 mm 2 mps 574 mmHg 55%
    12:00 +21°C° 0.1 mm 2 mps 574 mmHg 51%
    13:00 +21°C° 0.1 mm 2 mps 574 mmHg 48%
    14:00 +20°C° 0.4 mm 2 mps 573 mmHg 56%
    15:00 +19°C° 0.4 mm 2 mps 572 mmHg 63%
    16:00 +18°C° 0.4 mm 2 mps 571 mmHg 70%
    17:00 +16°C° 0.6 mm 1 mps 571 mmHg 77%
    18:00 +14°C° 0.6 mm 1 mps 570 mmHg 84%
    19:00 +13°C° 0.6 mm 1 mps 569 mmHg 91%
    20:00 +12°C° 0 mm 1 mps 570 mmHg 90%
    21:00 +12°C° 0 mm 1 mps 570 mmHg 89%
    22:00 +11°C° 0 mm 1 mps 570 mmHg 88%
    23:00 +12°C° 0 mm 1 mps 570 mmHg 86%

    Tomorrow, 24 September, Tuesday

    Time Temperature Precipitation Wind Pressure Humidity
    00:00 +12°C° 0 mm 1 mps 570 mmHg 85%
    01:00 +12°C° 0 mm 1 mps 570 mmHg 84%
    02:00 +12°C° 0 mm 1 mps 569 mmHg 85%
    03:00 +11°C° 0 mm 1 mps 569 mmHg 85%
    04:00 +11°C° 0 mm 1 mps 569 mmHg 86%
    05:00 +12°C° 0.1 mm 1 mps 570 mmHg 85%
    06:00 +12°C° 0.1 mm 1 mps 570 mmHg 84%
    07:00 +13°C° 0.1 mm 1 mps 571 mmHg 84%
    08:00 +14°C° 0.2 mm 1 mps 572 mmHg 79%
    09:00 +16°C° 0.2 mm 1 mps 573 mmHg 74%
    10:00 +19°C° 0.2 mm 1 mps 574 mmHg 69%
    11:00 +19°C° 0.4 mm 1 mps 574 mmHg 70%
    12:00 +19°C° 0.4 mm 1 mps 573 mmHg 70%
    13:00 +19°C° 0.4 mm 1 mps 572 mmHg 71%
    14:00 +19°C° 0.3 mm 1 mps 572 mmHg 71%
    15:00 +19°C° 0.3 mm 1 mps 572 mmHg 71%
    16:00 +19°C° 0.3 mm 1 mps 571 mmHg 71%
    17:00 +16°C° 0.3 mm 1 mps 571 mmHg 76%
    18:00 +14°C° 0.3 mm 1 mps 570 mmHg 82%
    19:00 +13°C° 0.3 mm 1 mps 570 mmHg 88%
    20:00 +12°C° 0.2 mm 1 mps 570 mmHg 87%
    21:00 +12°C° 0.2 mm 1 mps 570 mmHg 86%
    22:00 +12°C° 0.2 mm 1 mps 570 mmHg 85%
    23:00 +12°C° 0.2 mm 1 mps 570 mmHg 85%

    Day after tomorrow, 25 September, Wednesday

    Time Temperature Precipitation Wind Pressure Humidity
    00:00 +12°C° 0.2 mm 1 mps 570 mmHg 85%
    01:00 +12°C° 0.2 mm 1 mps 570 mmHg 86%
    02:00 +12°C° 0.1 mm 1 mps 570 mmHg 86%
    03:00 +11°C° 0.1 mm 1 mps 570 mmHg 87%
    04:00 +11°C° 0.1 mm 1 mps 569 mmHg 87%
    05:00 +12°C° 0 mm 1 mps 570 mmHg 86%
    06:00 +12°C° 0 mm 1 mps 571 mmHg 84%
    07:00 +13°C° 0 mm 1 mps 571 mmHg 82%
    08:00 +15°C° 0 mm 1 mps 573 mmHg 76%
    09:00 +18°C° 0 mm 1 mps 574 mmHg 70%
    10:00 +20°C° 0 mm 1 mps 575 mmHg 63%
    11:00 +20°C° 0.7 mm 1 mps 574 mmHg 65%
    12:00 +21°C° 0.7 mm 1 mps 574 mmHg 66%
    13:00 +21°C° 0.7 mm 1 mps 573 mmHg 68%
    14:00 +20°C° 1.1 mm 1 mps 573 mmHg 71%
    15:00 +19°C° 1.1 mm 1 mps 572 mmHg 75%
    16:00 +19°C° 1.1 mm 1 mps 571 mmHg 78%
    17:00 +16°C° 1.4 mm 1 mps 571 mmHg 83%
    18:00 +15°C° 1.4 mm 1 mps 570 mmHg 89%
    19:00 +13°C° 1.4 mm 1 mps 570 mmHg 94%
    20:00 +13°C° 0.7 mm 1 mps 570 mmHg 93%
    21:00 +13°C° 0.7 mm 1 mps 571 mmHg 93%
    22:00 +13°C° 0.7 mm 1 mps 571 mmHg 93%
    23:00 +12°C° 0 mm 1 mps 570 mmHg 92%

    26 September, Thursday

    Time Temperature Precipitation Wind Pressure Humidity
    00:00 +12°C° 0 mm 1 mps 570 mmHg 92%
    01:00 +12°C° 0 mm 1 mps 570 mmHg 91%
    02:00 +12°C° 0 mm 1 mps 570 mmHg 91%
    03:00 +12°C° 0 mm 1 mps 569 mmHg 90%
    04:00 +12°C° 0 mm 1 mps 569 mmHg 90%
    05:00 +12°C° 0 mm 1 mps 570 mmHg 89%
    06:00 +12°C° 0 mm 1 mps 570 mmHg 87%
    07:00 +13°C° 0 mm 1 mps 571 mmHg 86%
    08:00 +15°C° 0.1 mm 1 mps 572 mmHg 79%
    09:00 +18°C° 0.1 mm 1 mps 573 mmHg 72%
    10:00 +19°C° 0.1 mm 1 mps 574 mmHg 65%
    11:00 +19°C° 0.3 mm 1 mps 573 mmHg 66%
    12:00 +19°C° 0.3 mm 1 mps 573 mmHg 68%
    13:00 +19°C° 0.3 mm 1 mps 572 mmHg 69%
    14:00 +19°C° 0.3 mm 1 mps 572 mmHg 69%
    15:00 +19°C° 0.3 mm 1 mps 571 mmHg 68%
    16:00 +19°C° 0.3 mm 1 mps 571 mmHg 67%
    17:00 +16°C° 0.9 mm 1 mps 571 mmHg 75%
    18:00 +15°C° 0.9 mm 1 mps 570 mmHg 82%
    19:00 +13°C° 0.9 mm 1 mps 569 mmHg 90%
    20:00 +12°C° 0.3 mm 1 mps 570 mmHg 89%
    21:00 +12°C° 0.3 mm 1 mps 570 mmHg 89%
    22:00 +11°C° 0.3 mm 1 mps 570 mmHg 88%
    23:00 +11°C° 0 mm 1 mps 569 mmHg 88%

    27 September, Friday

    Time Temperature Precipitation Wind Pressure Humidity
    00:00 +11°C° 0 mm 1 mps 569 mmHg 88%
    01:00 +11°C° 0 mm 1 mps 569 mmHg 88%
    02:00 +11°C° 0 mm 1 mps 569 mmHg 87%
    03:00 +11°C° 0 mm 1 mps 569 mmHg 87%
    04:00 +11°C° 0 mm 1 mps 568 mmHg 86%
    05:00 +11°C° 0 mm 1 mps 569 mmHg 84%
    06:00 +12°C° 0 mm 1 mps 570 mmHg 82%
    07:00 +12°C° 0 mm 1 mps 571 mmHg 80%
    08:00 +14°C° 0 mm 1 mps 572 mmHg 75%
    09:00 +16°C° 0 mm 1 mps 573 mmHg 69%
    10:00 +19°C° 0 mm 1 mps 574 mmHg 63%
    11:00 +19°C° 0.2 mm 1 mps 573 mmHg 63%
    12:00 +20°C° 0.2 mm 1 mps 573 mmHg 62%
    13:00 +20°C° 0.2 mm 1 mps 572 mmHg 61%
    14:00 +20°C° 0.4 mm 1 mps 572 mmHg 63%
    15:00 +20°C° 0.4 mm 1 mps 571 mmHg 66%
    16:00 +19°C° 0.4 mm 1 mps 571 mmHg 69%
    17:00 +16°C° 0.7 mm 1 mps 570 mmHg 76%
    18:00 +15°C° 0.7 mm 1 mps 569 mmHg 83%
    19:00 +13°C° 0.7 mm 1 mps 569 mmHg 90%
    20:00 +12°C° 0.3 mm 1 mps 569 mmHg 90%
    21:00 +12°C° 0.3 mm 1 mps 569 mmHg 90%
    22:00 +11°C° 0.3 mm 1 mps 569 mmHg 89%
    23:00 +11°C° 0.2 mm 1 mps 569 mmHg 89%

    28 September, Saturday

    Time Temperature Precipitation Wind Pressure Humidity
    00:00 +11°C° 0.2 mm 1 mps 569 mmHg 89%
    01:00 +11°C° 0.2 mm 1 mps 569 mmHg 89%
    02:00 +11°C° 0.2 mm 1 mps 569 mmHg 89%
    03:00 +11°C° 0.2 mm 1 mps 568 mmHg 89%
    04:00 +11°C° 0.2 mm 1 mps 568 mmHg 89%
    05:00 +11°C° 0 mm 1 mps 569 mmHg 86%
    06:00 +12°C° 0 mm 1 mps 569 mmHg 84%
    07:00 +12°C° 0 mm 0 mps 570 mmHg 82%
    08:00 +15°C° 0 mm 1 mps 571 mmHg 76%
    09:00 +18°C° 0 mm 1 mps 572 mmHg 69%
    10:00 +20°C° 0 mm 1 mps 574 mmHg 63%
    11:00 +20°C° 0.3 mm 1 mps 573 mmHg 62%
    12:00 +21°C° 0.3 mm 1 mps 573 mmHg 62%
    13:00 +21°C° 0.3 mm 1 mps 572 mmHg 61%
    14:00 +20°C° 1.5 mm 1 mps 571 mmHg 69%
    15:00 +19°C° 1.5 mm 1 mps 571 mmHg 77%
    16:00 +18°C° 1.5 mm 1 mps 570 mmHg 86%
    17:00 +15°C° 1.1 mm 1 mps 569 mmHg 89%
    18:00 +14°C° 1.1 mm 1 mps 569 mmHg 92%
    19:00 +13°C° 1.1 mm 1 mps 569 mmHg 95%
    20:00 +12°C° 0.5 mm 0 mps 569 mmHg 94%
    21:00 +12°C° 0.5 mm 0 mps 569 mmHg 94%
    22:00 +11°C° 0.5 mm 0 mps 570 mmHg 93%
    23:00 +11°C° 0 mm 0 mps 569 mmHg 94%
    Show more